When you browse on this site, cookies collect data to enhance your experience and personalize the content and advertising you see.
Visit our Privacy Policy to learn more. By continuing to use the site, you agree to this use of cookies and data.
  • In Österreich
  • Länderverzeichnis
  • Für 7 Tage
  • Wassertemperatur
  • Satellitenkarten
  • Wetterkarte
  • News
  • Widgets
  • user-avatar
    Anmelden

    Stündliche Wetter Viedma

    Heute, 23 April, Dienstag

    Zeit Temperatur Niederschläge Wind Luftdruck Luftfeuchtigkeit
    00:00 +16°C° 0 mm 6 m/S 759 mmHg 47%
    01:00 +16°C° 0 mm 6 m/S 759 mmHg 45%
    02:00 +16°C° 0 mm 6 m/S 759 mmHg 43%
    03:00 +16°C° 0 mm 6 m/S 759 mmHg 42%
    04:00 +15°C° 0 mm 6 m/S 759 mmHg 41%
    05:00 +15°C° 0 mm 6 m/S 759 mmHg 41%
    06:00 +15°C° 0 mm 6 m/S 760 mmHg 42%
    07:00 +15°C° 0 mm 6 m/S 760 mmHg 43%
    08:00 +15°C° 0 mm 6 m/S 761 mmHg 44%
    09:00 +17°C° 0 mm 5 m/S 761 mmHg 47%
    10:00 +19°C° 0 mm 5 m/S 762 mmHg 50%
    11:00 +21°C° 0 mm 5 m/S 762 mmHg 53%
    12:00 +20°C° 0 mm 5 m/S 762 mmHg 55%
    13:00 +20°C° 0 mm 6 m/S 762 mmHg 56%
    14:00 +19°C° 0 mm 6 m/S 762 mmHg 58%
    15:00 +17°C° 0 mm 6 m/S 763 mmHg 61%
    16:00 +16°C° 0 mm 6 m/S 763 mmHg 64%
    17:00 +15°C° 0 mm 5 m/S 763 mmHg 67%
    18:00 +14°C° 0 mm 5 m/S 763 mmHg 70%
    19:00 +13°C° 0 mm 4 m/S 764 mmHg 73%
    20:00 +13°C° 0 mm 3 m/S 764 mmHg 75%
    21:00 +12°C° 0 mm 3 m/S 765 mmHg 75%
    22:00 +12°C° 0 mm 3 m/S 765 mmHg 75%
    23:00 +12°C° 0 mm 3 m/S 765 mmHg 75%

    Morgen, 24 April, Mittwoch

    Zeit Temperatur Niederschläge Wind Luftdruck Luftfeuchtigkeit
    00:00 +12°C° 0 mm 2 m/S 765 mmHg 76%
    01:00 +12°C° 0 mm 2 m/S 766 mmHg 76%
    02:00 +12°C° 0 mm 2 m/S 766 mmHg 77%
    03:00 +12°C° 0 mm 2 m/S 766 mmHg 78%
    04:00 +10°C° 0 mm 2 m/S 766 mmHg 79%
    05:00 +10°C° 0 mm 2 m/S 765 mmHg 80%
    06:00 +12°C° 0 mm 2 m/S 766 mmHg 77%
    07:00 +12°C° 0 mm 2 m/S 766 mmHg 75%
    08:00 +13°C° 0 mm 2 m/S 766 mmHg 72%
    09:00 +14°C° 0 mm 3 m/S 766 mmHg 65%
    10:00 +17°C° 0 mm 3 m/S 767 mmHg 58%
    11:00 +19°C° 0 mm 3 m/S 767 mmHg 51%
    12:00 +20°C° 0 mm 4 m/S 766 mmHg 50%
    13:00 +21°C° 0 mm 4 m/S 766 mmHg 49%
    14:00 +21°C° 0 mm 4 m/S 766 mmHg 48%
    15:00 +20°C° 0 mm 5 m/S 765 mmHg 53%
    16:00 +19°C° 0 mm 5 m/S 765 mmHg 59%
    17:00 +17°C° 0 mm 6 m/S 765 mmHg 64%
    18:00 +16°C° 0 mm 6 m/S 765 mmHg 71%
    19:00 +15°C° 0 mm 5 m/S 766 mmHg 77%
    20:00 +14°C° 0 mm 5 m/S 766 mmHg 84%
    21:00 +14°C° 0 mm 5 m/S 766 mmHg 85%
    22:00 +14°C° 0 mm 5 m/S 766 mmHg 87%
    23:00 +14°C° 0 mm 5 m/S 767 mmHg 89%

    übermorgen, 25 April, Donnerstag

    Zeit Temperatur Niederschläge Wind Luftdruck Luftfeuchtigkeit
    00:00 +14°C° 0 mm 5 m/S 767 mmHg 90%
    01:00 +13°C° 0 mm 5 m/S 767 mmHg 92%
    02:00 +13°C° 0 mm 5 m/S 767 mmHg 93%
    03:00 +13°C° 0 mm 4 m/S 766 mmHg 93%
    04:00 +13°C° 0 mm 4 m/S 766 mmHg 94%
    05:00 +13°C° 0 mm 4 m/S 766 mmHg 94%
    06:00 +13°C° 0 mm 4 m/S 766 mmHg 90%
    07:00 +13°C° 0 mm 4 m/S 767 mmHg 87%
    08:00 +13°C° 0 mm 4 m/S 767 mmHg 83%
    09:00 +17°C° 0 mm 4 m/S 767 mmHg 68%
    10:00 +20°C° 0 mm 4 m/S 767 mmHg 54%
    11:00 +22°C° 0 mm 5 m/S 767 mmHg 39%
    12:00 +23°C° 0 mm 5 m/S 766 mmHg 36%
    13:00 +24°C° 0 mm 6 m/S 766 mmHg 34%
    14:00 +24°C° 0 mm 6 m/S 766 mmHg 31%
    15:00 +23°C° 0 mm 6 m/S 765 mmHg 34%
    16:00 +22°C° 0 mm 5 m/S 765 mmHg 37%
    17:00 +21°C° 0 mm 5 m/S 765 mmHg 40%
    18:00 +20°C° 0 mm 5 m/S 765 mmHg 48%
    19:00 +19°C° 0 mm 5 m/S 765 mmHg 57%
    20:00 +17°C° 0 mm 5 m/S 766 mmHg 65%
    21:00 +17°C° 0 mm 6 m/S 766 mmHg 67%
    22:00 +17°C° 0 mm 6 m/S 766 mmHg 70%
    23:00 +17°C° 0 mm 6 m/S 766 mmHg 72%

    26 April, Freitag

    Zeit Temperatur Niederschläge Wind Luftdruck Luftfeuchtigkeit
    00:00 +16°C° 0 mm 6 m/S 765 mmHg 72%
    01:00 +16°C° 0 mm 5 m/S 765 mmHg 72%
    02:00 +15°C° 0 mm 5 m/S 765 mmHg 72%
    03:00 +16°C° 0 mm 5 m/S 765 mmHg 68%
    04:00 +16°C° 0 mm 5 m/S 765 mmHg 65%
    05:00 +17°C° 0 mm 4 m/S 764 mmHg 61%
    06:00 +16°C° 0 mm 5 m/S 764 mmHg 62%
    07:00 +15°C° 0 mm 5 m/S 764 mmHg 62%
    08:00 +15°C° 0 mm 5 m/S 764 mmHg 62%
    09:00 +17°C° 0 mm 6 m/S 764 mmHg 57%
    10:00 +20°C° 0 mm 6 m/S 764 mmHg 52%
    11:00 +22°C° 0 mm 6 m/S 764 mmHg 47%
    12:00 +23°C° 0 mm 7 m/S 763 mmHg 45%
    13:00 +24°C° 0 mm 7 m/S 762 mmHg 43%
    14:00 +24°C° 0 mm 7 m/S 761 mmHg 40%
    15:00 +24°C° 0 mm 6 m/S 761 mmHg 43%
    16:00 +24°C° 0 mm 6 m/S 760 mmHg 45%
    17:00 +23°C° 0 mm 5 m/S 760 mmHg 47%
    18:00 +22°C° 0 mm 5 m/S 760 mmHg 51%
    19:00 +22°C° 0 mm 6 m/S 760 mmHg 55%
    20:00 +21°C° 0 mm 6 m/S 760 mmHg 58%
    21:00 +20°C° 0 mm 6 m/S 759 mmHg 60%
    22:00 +20°C° 0 mm 6 m/S 759 mmHg 61%
    23:00 +20°C° 0 mm 6 m/S 758 mmHg 62%

    27 April, Samstag

    Zeit Temperatur Niederschläge Wind Luftdruck Luftfeuchtigkeit
    00:00 +20°C° 0 mm 7 m/S 758 mmHg 65%
    01:00 +20°C° 0 mm 7 m/S 758 mmHg 69%
    02:00 +18°C° 0 mm 8 m/S 757 mmHg 73%
    03:00 +18°C° 0 mm 8 m/S 757 mmHg 74%
    04:00 +18°C° 0 mm 8 m/S 757 mmHg 76%
    05:00 +18°C° 0 mm 8 m/S 756 mmHg 78%
    06:00 +18°C° 0.2 mm 8 m/S 756 mmHg 78%
    07:00 +18°C° 0.2 mm 9 m/S 756 mmHg 79%
    08:00 +18°C° 0.2 mm 9 m/S 756 mmHg 80%
    09:00 +20°C° 0 mm 8 m/S 756 mmHg 70%
    10:00 +22°C° 0 mm 8 m/S 756 mmHg 61%
    11:00 +23°C° 0 mm 8 m/S 756 mmHg 52%
    12:00 +23°C° 0 mm 7 m/S 756 mmHg 46%
    13:00 +23°C° 0 mm 6 m/S 756 mmHg 41%
    14:00 +24°C° 0 mm 6 m/S 755 mmHg 35%
    15:00 +23°C° 0 mm 5 m/S 755 mmHg 36%
    16:00 +22°C° 0 mm 4 m/S 755 mmHg 37%
    17:00 +22°C° 0 mm 3 m/S 755 mmHg 37%
    18:00 +20°C° 0 mm 3 m/S 756 mmHg 41%
    19:00 +19°C° 0 mm 3 m/S 756 mmHg 46%
    20:00 +18°C° 0 mm 2 m/S 757 mmHg 50%
    21:00 +17°C° 0 mm 2 m/S 757 mmHg 51%
    22:00 +17°C° 0 mm 3 m/S 758 mmHg 52%
    23:00 +17°C° 0 mm 3 m/S 758 mmHg 53%

    28 April, Sonntag

    Zeit Temperatur Niederschläge Wind Luftdruck Luftfeuchtigkeit
    00:00 +16°C° 0 mm 3 m/S 758 mmHg 56%
    01:00 +16°C° 0 mm 3 m/S 759 mmHg 58%
    02:00 +14°C° 0 mm 3 m/S 759 mmHg 61%
    03:00 +13°C° 0 mm 3 m/S 759 mmHg 62%
    04:00 +14°C° 0 mm 2 m/S 759 mmHg 62%
    05:00 +13°C° 0 mm 2 m/S 760 mmHg 63%
    06:00 +14°C° 0 mm 2 m/S 760 mmHg 60%
    07:00 +14°C° 0 mm 1 m/S 760 mmHg 57%
    08:00 +14°C° 0 mm 1 m/S 760 mmHg 54%
    09:00 +16°C° 0 mm 1 m/S 760 mmHg 47%
    10:00 +18°C° 0 mm 1 m/S 760 mmHg 40%
    11:00 +20°C° 0 mm 1 m/S 760 mmHg 32%
    12:00 +20°C° 0 mm 2 m/S 759 mmHg 30%
    13:00 +21°C° 0 mm 2 m/S 759 mmHg 28%
    14:00 +22°C° 0 mm 3 m/S 758 mmHg 25%
    15:00 +21°C° 0 mm 3 m/S 758 mmHg 28%
    16:00 +21°C° 0 mm 3 m/S 757 mmHg 31%
    17:00 +20°C° 0 mm 3 m/S 757 mmHg 34%
    18:00 +18°C° 0 mm 3 m/S 757 mmHg 43%
    19:00 +17°C° 0 mm 3 m/S 757 mmHg 52%
    20:00 +14°C° 0 mm 4 m/S 757 mmHg 60%
    21:00 +14°C° 0 mm 4 m/S 757 mmHg 65%
    22:00 +14°C° 0 mm 4 m/S 757 mmHg 70%
    23:00 +14°C° 0 mm 4 m/S 757 mmHg 75%
    Mehr zeigen